Overview Statistics Trail Chart Weather Telemetry Raw packets
 

This is the latest recevied weather packets stored in our database for station/object K5SVV. If no packets are shown the sender has not sent any weather packets the latest 10 day(s).

<< 65 66 67 68 69 70 71 >>
Time Temp. Humidity Pressure Rain* Wind** Luminosity Snow
1788217932 37.22° C 35% 1013 hPa 0 mm - 168 W/m² -
1788217632 37.22° C 36% 1012.9 hPa 0 mm - 193 W/m² -
1788217328 37.22° C 36% 1012.9 hPa 0 mm - 205 W/m² -
1788217027 37.22° C 35% 1012.9 hPa 0 mm - 235 W/m² -
1788216722 37.22° C 36% 1013.2 hPa 0 mm - 244 W/m² -
1788216417 37.22° C 36% 1013.1 hPa 0 mm - 232 W/m² -
1788216112 37.22° C 35% 1013.3 hPa 0 mm - 266 W/m² -
1788215808 37.78° C 36% 1013.3 hPa 0 mm - 296 W/m² -
1788215504 37.22° C 36% 1013.5 hPa 0 mm - 288 W/m² -
1788215200 37.22° C 36% 1013.4 hPa 0 mm - 311 W/m² -
1788214895 37.22° C 36% 1013.3 hPa 0 mm - 329 W/m² -
1788214591 37.22° C 36% 1013.2 hPa 0 mm - 359 W/m² -
1788214286 36.67° C 36% 1013.2 hPa 0 mm - 382 W/m² -
1788213981 35.56° C 38% 1013.3 hPa 0 mm - 398 W/m² -
1788213676 36.11° C 38% 1013.5 hPa 0 mm - 93 W/m² -
1788213371 36.67° C 38% 1013.2 hPa 0 mm - 84 W/m² -
1788213067 37.22° C 37% 1013.4 hPa 0 mm - 108 W/m² -
1788212764 37.78° C 35% 1013.6 hPa 0 mm - 173 W/m² -
1788212460 38.33° C 36% 1013.5 hPa 0 mm - 514 W/m² -
1788212156 37.78° C 35% 1013.4 hPa 0 mm - 570 W/m² -
1788211851 37.22° C 37% 1013.8 hPa 0 mm - 544 W/m² -
1788211542 37.78° C 36% 1013.7 hPa 0 mm - 215 W/m² -
1788211237 37.78° C 37% 1013.8 hPa 0 mm - 599 W/m² -
1788210931 36.67° C 38% 1013.7 hPa 0 mm - 620 W/m² -
1788210631 38.33° C 37% 1013.8 hPa 0 mm - 206 W/m² -

* Rain latest hour (hover to see other rain measurements)
** Current wind speed in m/s (hover to see current wind gust speed)